Regional Weather Roundup
Issued by NWS Northern Indiana

Home | Current Version | Previous Version | Graphics & Text | Print | Product List | Glossary On
Versions: 1 2 3 4 5 6 7 8 9 10 11 12 13 14 15 16 17 18 19 20 21 22 23 24 25 26 27 28 29 30 31 32 33 34 35 36 37 38 39 40 41 42 43 44 45 46 47 48 49 50
232
ASUS43 KIWX 040910
RWRIWX

KIWX WEATHER ROUNDUP
NATIONAL WEATHER SERVICE NORTHERN INDIANA
400 AM EST SUN DEC 04 2016

NOTE: "FAIR" INDICATES FEW OR NO CLOUDS BELOW 12,000 FEET WITH NO
SIGNIFICANT WEATHER AND/OR OBSTRUCTIONS TO VISIBILITY.

* THESE STATIONS ARE NOT UNDER NWS QUALITY CONTROL. THEY ALSO MAY NOT
  REPORT WEATHER SUCH AS PRECIPITATION OR FOG.

INZ001>027-041000-
NORTHERN INDIANA

CITY           SKY/WX    TMP DP  RH WIND       PRES   REMARKS
GARY*          CLOUDY    33  29  86 CALM      30.25F
VALPARAISO     CLOUDY    31  27  85 CALM      30.24S
MICHIGAN CITY* CLOUDY    32  28  86 CALM      30.25S
LAPORTE*       CLOUDY    32  32 100 CALM      30.24S
KNOX*          CLOUDY    30  18  59 CALM      30.24F
SOUTH BEND     CLOUDY    31  25  78 SE3       30.25R
GOSHEN         CLOUDY    32  26  78 CALM      30.24F
MONTICELLO*    CLOUDY    32  25  73 E3        30.22F
LOGANSPORT*    CLOUDY    32  28  86 E6        30.24F WCI  26
ROCHESTER*     PTCLDY    32  32 100 E5        30.24F WCI  27
WARSAW*        CLOUDY    30  27  86 CALM      30.24F
ANGOLA*        CLOUDY    30  28  93 CALM      30.24F
FORT WAYNE     CLOUDY    33  28  81 E3        30.25F
HUNTINGTON*    CLOUDY    32  28  86 E3        30.24F
PERU/GRISSOM   CLOUDY    31  27  85 NE5       30.21F WCI  26
MARION*        MOCLDY    31  29  92 CALM      30.23F

$$
INZ028>050-041000-
CENTRAL INDIANA

CITY           SKY/WX    TMP DP  RH WIND       PRES   REMARKS
LAFAYETTE      CLOUDY    32  28  85 E7        30.22F WCI  26
KOKOMO*        MOCLDY    31  29  92 E6        30.24F WCI  25
MUNCIE*        CLOUDY    33  30  88 CALM      30.23F
INDIANAPOLIS   CLOUDY    34  27  75 E6        30.22F WCI  29

$$
MIZ043>046-050>051-056>058-064>065-071>073-077>080-041000-
SOUTHWEST LOWER MICHIGAN

CITY           SKY/WX    TMP DP  RH WIND       PRES   REMARKS
BATTLE CREEK   CLOUDY    33  28  81 S5        30.24F WCI  29
BENTON HARBOR  CLOUDY    33  25  72 S3        30.24F
COLDWATER*     CLOUDY    32  27  83 CALM      30.25F
HILLSDALE*     CLOUDY    32  27  80 CALM      30.23S
HOLLAND        CLOUDY    34  27  75 S8        30.23F WCI  27
GRAND RAPIDS   CLOUDY    34  27  75 S5        30.24F WCI  30
KALAMAZOO      CLOUDY    33  26  75 SW5       30.24F WCI  29
STURGIS*       CLOUDY    32  27  82 CALM      30.24F
THREE RIVERS*  CLOUDY    32  29  87 CALM      30.26S

$$
OHZ001>008-015>018-024>025-041000-
NORTHWEST OHIO

CITY           SKY/WX    TMP DP  RH WIND       PRES   REMARKS
WAUSEON*       CLOUDY    34  28  80 S5        30.26S WCI  30
DEFIANCE       CLOUDY    35  28  75 CALM      30.26F
FINDLAY        CLOUDY    34  26  72 CALM      30.25F
TOLEDO EXPRESS CLOUDY    33  28  81 CALM      30.26F
TOLEDO METCALF CLOUDY    35  29  78 S3        30.28F
LIMA           CLOUDY    33  28  81 E5        30.25F WCI  29

$$
AND FOR LAKE MICHIGAN COASTAL AND OPEN LAKE BUOY OBSERVATIONS

STATION/POSITION TEMP    WIND        PRES    VSBY  WAVE
                 AIR SEA DIR/SP/G                  HT/PER
                 (F)     (DEG/KT/KT) (MB)    (MI)  (FT/S)
CALUMET HARBOR    32     220/  3/  5 1023.7R
MICHIGAN CITY     32     130/  5/  6   N/A
BURNS HARBOR      33     170/  3/  6 1024.7R
SAINT JOSEPH      34     160/  4/  6 1024.0
SOUTH LAKE BUOY   36 48  220/  2/  4 1024.0F         0

$$
&&




USA.gov is the U.S. government's official web portal to all federal, state and local government web resources and services.